Location: Davayat
(45.9471°N, 3.1105°E)
Time: 17:39:09
(UTC+00:00)

BREEZE-M DEB (TANK) - Pass Details

Date: 01 December 2020
Orbit: 431 x 13851 km, 45.9° (Epoch: 16 January)

Event Time Altitude Azimuth Distance (km) Brightness Sun altitude
Rises 17:35:55 0° 220° (SW) 3,774 7.5 -15.4°
Reaches altitude 10° 17:39:41 10° 203° (SSW) 2,046 5.7 -16.1°
Maximum altitude 17:42:35 20° 154° (SSE) 1,169 3.9 -16.5°
Enters shadow 17:43:13 19° 136° (SE) 1,167 3.7 -16.6°
